Location: ??
(35.4824°N, 139.4679°E)
Time: 20:45:40
(UTC+00:00)

Cosmos 1697 Rocket - Pass Details

Date: 29 October 2020
Orbit: 831 x 845 km, 71.0° (Epoch: 24 November)

Event Time Altitude Azimuth Distance (km) Brightness Sun altitude
Exits shadow 19:19:31 25° 327° (NNW) 1,646 3.9 -21.3°
Maximum altitude 19:22:50 65° 252° (WSW) 924 2.6 -20.7°
Drops below altitude 10° 19:28:25 10° 171° (S) 2,455 5.2 -19.5°
Sets 19:30:52 0° 169° (SSE) 3,386 6.0 -19.0°
